Weather History for PHNY - May, 2013

Change the Weather History Date:

Wednesday, May 8, 2013

  Actual Average Record
Temperature  
Mean Temperature 72 °F -  
Max Temperature 82 °F 77 °F 84 °F (2014)
Min Temperature 63 °F 62 °F 56 °F (1955)
Cooling Degree Days 8    
Growing Degree Days 22 (Base 50)    
Moisture  
Dew Point 66 °F    
Average Humidity 82    
Maximum Humidity 100    
Minimum Humidity 58    
Precipitation  
Precipitation 0.00 in - - ()
Sea Level Pressure  
Sea Level Pressure 30.01 in    
Wind  
Wind Speed 5 mph (East)    
Max Wind Speed 9 mph    
Max Gust Speed -    
Visibility 10 miles    
Events      
Averages and records for this station are not official NWS values.
T = Trace of Precipitation, MM = Missing Value Source: NWS Daily Summary

Daily Weather History Graph

Daily Weather History Graph

Search for Another Location

Airport or City:

Trip Planner

Search our weather history database for the weather conditions in past years. The results will help you decide how hot, cold, wet, or windy it might be!

Date:

Astronomy

May. 08, 2013 Rise Set
Actual Time 5:53 AM HST 6:55 PM HST
Civil Twilight 5:29 AM HST 7:18 PM HST
Nautical Twilight 5:02 AM HST 7:46 PM HST
Astronomical Twilight 4:33 AM HST 8:15 PM HST
Moon 5:00 AM HST (5/8) 6:08 PM HST (5/8)
Length of Visible Light 13h 48m
Length of Day
13h 01m
Waning Crescent, 1% of the Moon is Illuminated
May 8
Waning Crescent
May 9
New
May 17
First Quarter
May 24
Full
May 31
Last Quarter

Hourly Weather History & Observations

Time (HST) Temp. Heat Index Dew Point Humidity Pressure Visibility Wind Dir Wind Speed Gust Speed Precip Events Conditions
12:56 AM 64.9 °F - 63.9 °F 96% 29.97 in 10.0 mi East 5.8 mph - N/A   Clear
1:56 AM 64.4 °F - 64.4 °F 100% 30.01 in 10.0 mi East 5.8 mph - N/A   Scattered Clouds
2:56 AM 63.9 °F - 63.9 °F 100% 29.95 in 10.0 mi ENE 4.6 mph - N/A   Partly Cloudy
3:56 AM 65.8 °F - 64.9 °F 97% 29.94 in 10.0 mi East 4.6 mph - N/A   Scattered Clouds
4:56 AM 64.4 °F - 64.4 °F 100% 30.00 in 10.0 mi ENE 4.6 mph - N/A   Partly Cloudy
5:36 AM 64.4 °F - 64.4 °F 100% 30.01 in 10.0 mi ENE 4.6 mph - N/A   Mostly Cloudy
5:56 AM 66.9 °F - 65.8 °F 96% 29.95 in 10.0 mi East 5.8 mph - N/A   Mostly Cloudy
6:06 AM 66.2 °F - 64.4 °F 94% 30.01 in 10.0 mi East 4.6 mph - N/A   Mostly Cloudy
6:39 AM 66.2 °F - 66.2 °F 100% 30.02 in 10.0 mi East 4.6 mph - N/A   Overcast
6:56 AM 68.0 °F - 66.9 °F 96% 29.98 in 10.0 mi East 4.6 mph - N/A   Mostly Cloudy
7:03 AM 69.8 °F - 66.2 °F 88% 30.03 in 10.0 mi East 4.6 mph - N/A   Mostly Cloudy
7:27 AM 69.8 °F - 66.2 °F 88% 30.04 in 10.0 mi East 3.5 mph - N/A   Overcast
7:56 AM 71.6 °F - 66.2 °F 83% 30.04 in 10.0 mi Calm Calm - N/A   Overcast
8:56 AM 72.9 °F - 66.9 °F 82% 30.02 in 10.0 mi South 4.6 mph - N/A   Overcast
9:20 AM 75.2 °F - 66.2 °F 73% 30.07 in 10.0 mi Variable 4.6 mph - N/A   Overcast
9:56 AM 77.9 °F - 65.8 °F 66% 30.02 in 10.0 mi SSE 5.8 mph - N/A   Scattered Clouds
10:17 AM 78.8 °F - 66.2 °F 65% 30.07 in 10.0 mi SSW 6.9 mph - N/A   Mostly Cloudy
10:56 AM 78.8 °F - 66.2 °F 65% 30.07 in 10.0 mi South 5.8 mph - N/A   Mostly Cloudy
11:56 AM 79.0 °F - 65.8 °F 64% 30.00 in 10.0 mi WSW 8.1 mph - N/A   Mostly Cloudy
12:19 PM 80.6 °F 82.7 °F 66.2 °F 61% 30.06 in 10.0 mi West 8.1 mph - N/A   Scattered Clouds
12:56 PM 81.9 °F 84.2 °F 66.9 °F 60% 29.99 in 10.0 mi West 6.9 mph - N/A   Partly Cloudy
1:56 PM 82.4 °F 84.6 °F 66.2 °F 58% 30.03 in 10.0 mi WSW 9.2 mph - N/A   Partly Cloudy
2:56 PM 81.9 °F 84.8 °F 68.0 °F 63% 29.96 in 10.0 mi WNW 8.1 mph - N/A   Scattered Clouds
3:56 PM 81.0 °F 83.3 °F 66.9 °F 62% 29.95 in 10.0 mi West 9.2 mph - N/A   Partly Cloudy
4:56 PM 78.8 °F - 66.2 °F 65% 30.01 in 10.0 mi Variable 5.8 mph - N/A   Scattered Clouds
5:56 PM 77.0 °F - 66.9 °F 71% 29.97 in 10.0 mi WNW 5.8 mph - N/A   Clear
6:56 PM 72.9 °F - 66.9 °F 82% 29.99 in 10.0 mi WNW 4.6 mph - N/A   Clear
7:56 PM 70.9 °F - 66.9 °F 87% 30.00 in 10.0 mi Calm Calm - N/A   Clear
8:56 PM 70.0 °F - 65.8 °F 87% 30.02 in 10.0 mi ENE 5.8 mph - N/A   Clear
9:56 PM 68.0 °F - 65.8 °F 93% 30.03 in 10.0 mi ENE 3.5 mph - N/A   Clear
10:56 PM 66.9 °F - 64.9 °F 93% 30.04 in 10.0 mi East 6.9 mph - N/A   Clear
11:56 PM 66.9 °F - 65.8 °F 96% 30.03 in 10.0 mi East 5.8 mph - N/A   Clear